N50SF EDHL-EHGG

Flight info

Callsign N50SF
Flight time 0h 49m
Altitude 20000
Route HAM7J HAM L23 WSN N125 ITMIZ DCT DOBAK
Aircraft SF50/L-BDGRSWY/LB2U2

Departure

Time 2026-05-08 16:33
Airport Lübeck Blankensee Airport (EDHL)

Arrival

Time 2026-05-08 17:22
Airport Groningen Airport Eelde (EHGG)
Time Latitude Longitude Altitude Speed Heading
2026-05-08 16:10 53.80601 10.70346 53 ft 0 kts 219°
2026-05-08 16:28 53.80600 10.70345 53 ft 0 kts 219°
2026-05-08 16:30 53.80598 10.70343 53 ft 2 kts 220°
2026-05-08 16:30 53.80559 10.70330 52 ft 9 kts 174°
2026-05-08 16:30 53.80487 10.70395 52 ft 14 kts 143°
2026-05-08 16:31 53.80428 10.70467 52 ft 5 kts 146°
2026-05-08 16:31 53.80423 10.70472 52 ft 0 kts 146°
2026-05-08 16:31 53.80419 10.70476 52 ft 4 kts 146°
2026-05-08 16:31 53.80354 10.70553 51 ft 18 kts 146°
2026-05-08 16:32 53.80302 10.70710 53 ft 15 kts 74°
2026-05-08 16:32 53.80340 10.70909 54 ft 28 kts 72°
2026-05-08 16:32 53.80457 10.71524 60 ft 80 kts 67°
2026-05-08 16:32 53.80669 10.72625 211 ft 106 kts 72°
2026-05-08 16:33 53.80880 10.73811 651 ft 108 kts 72°
2026-05-08 16:33 53.81061 10.75147 1128 ft 121 kts 79°
2026-05-08 16:33 53.81297 10.76428 1818 ft 119 kts 66°
2026-05-08 16:33 53.81689 10.77821 2131 ft 144 kts 69°
2026-05-08 16:34 53.82008 10.79518 2588 ft 154 kts 75°
2026-05-08 16:34 53.82328 10.81255 3211 ft 156 kts 74°
2026-05-08 16:34 53.82669 10.83022 3799 ft 160 kts 76°
2026-05-08 16:34 53.83010 10.84810 4451 ft 159 kts 76°
2026-05-08 16:35 53.83330 10.86608 5003 ft 163 kts 83°
2026-05-08 16:35 53.83114 10.88444 5572 ft 163 kts 121°
2026-05-08 16:35 53.82252 10.89718 6119 ft 171 kts 156°
2026-05-08 16:35 53.81058 10.89771 6676 ft 178 kts 198°
2026-05-08 16:36 53.80114 10.88451 7239 ft 182 kts 240°
2026-05-08 16:36 53.79716 10.86409 7786 ft 185 kts 254°
2026-05-08 16:36 53.79375 10.84340 8361 ft 185 kts 253°
2026-05-08 16:36 53.79018 10.82238 8931 ft 187 kts 253°
2026-05-08 16:37 53.78666 10.80121 9526 ft 187 kts 254°
2026-05-08 16:37 53.78312 10.77992 10111 ft 188 kts 253°
2026-05-08 16:37 53.77953 10.75842 10635 ft 189 kts 254°
2026-05-08 16:37 53.77599 10.73722 11147 ft 190 kts 254°
2026-05-08 16:38 53.77236 10.71558 11664 ft 191 kts 254°
2026-05-08 16:38 53.76870 10.69379 12157 ft 193 kts 255°
2026-05-08 16:38 53.76502 10.67192 12681 ft 193 kts 255°
2026-05-08 16:38 53.76135 10.65008 13203 ft 193 kts 255°
2026-05-08 16:39 53.75769 10.62833 13679 ft 195 kts 255°
2026-05-08 16:39 53.75395 10.60610 14116 ft 198 kts 255°
2026-05-08 16:39 53.75017 10.58372 14563 ft 198 kts 255°
2026-05-08 16:39 53.74640 10.56137 15049 ft 196 kts 255°
2026-05-08 16:40 53.74265 10.53919 15506 ft 196 kts 256°
2026-05-08 16:40 53.73884 10.51682 15879 ft 200 kts 255°
2026-05-08 16:40 53.73510 10.49455 16346 ft 198 kts 256°
2026-05-08 16:40 53.73129 10.47223 16777 ft 198 kts 256°
2026-05-08 16:41 53.72746 10.44970 17158 ft 201 kts 256°
2026-05-08 16:41 53.72360 10.42707 17608 ft 200 kts 255°
2026-05-08 16:41 53.71970 10.40426 17957 ft 203 kts 256°
2026-05-08 16:42 53.71192 10.35861 18728 ft 205 kts 255°
2026-05-08 16:42 53.70796 10.33548 19093 ft 205 kts 256°
2026-05-08 16:42 53.70397 10.31217 19407 ft 207 kts 255°
2026-05-08 16:42 53.70001 10.28907 19751 ft 207 kts 256°
2026-05-08 16:43 53.69600 10.26565 20089 ft 208 kts 256°
2026-05-08 16:43 53.69185 10.24143 20156 ft 222 kts 255°
2026-05-08 16:43 53.68742 10.21572 20173 ft 234 kts 255°
2026-05-08 16:43 53.68186 10.18936 20167 ft 243 kts 249°
2026-05-08 16:44 53.67510 10.16268 20165 ft 250 kts 249°
2026-05-08 16:44 53.66828 10.13519 20171 ft 257 kts 249°
2026-05-08 16:44 53.66145 10.10744 20165 ft 262 kts 249°
2026-05-08 16:44 53.65431 10.07862 20169 ft 268 kts 249°
2026-05-08 16:45 53.64701 10.04922 20162 ft 274 kts 249°
2026-05-08 16:45 53.63964 10.01955 20165 ft 280 kts 249°
2026-05-08 16:45 53.63204 9.98897 20166 ft 284 kts 249°
2026-05-08 16:45 53.62436 9.95815 20169 ft 287 kts 249°
2026-05-08 16:46 53.61656 9.92692 20163 ft 290 kts 249°
2026-05-08 16:46 53.60871 9.89553 20166 ft 291 kts 249°
2026-05-08 16:46 53.60081 9.86397 20162 ft 293 kts 249°
2026-05-08 16:46 53.59287 9.83229 20169 ft 294 kts 249°
2026-05-08 16:47 53.58487 9.80045 20160 ft 295 kts 249°
2026-05-08 16:47 53.57697 9.76902 20155 ft 296 kts 249°
2026-05-08 16:47 53.56891 9.73697 20154 ft 297 kts 249°
2026-05-08 16:47 53.56084 9.70492 20162 ft 297 kts 249°
2026-05-08 16:48 53.55272 9.67281 20160 ft 298 kts 249°
2026-05-08 16:48 53.54459 9.64063 20163 ft 298 kts 249°
2026-05-08 16:48 53.53655 9.60882 20164 ft 299 kts 249°
2026-05-08 16:48 53.52836 9.57654 20162 ft 299 kts 248°
2026-05-08 16:49 53.52014 9.54425 20157 ft 299 kts 248°
2026-05-08 16:49 53.51192 9.51206 20163 ft 300 kts 248°
2026-05-08 16:49 53.50378 9.48024 20158 ft 300 kts 248°
2026-05-08 16:49 53.49556 9.44805 20158 ft 300 kts 248°
2026-05-08 16:50 53.48730 9.41584 20162 ft 300 kts 248°
2026-05-08 16:50 53.47905 9.38358 20159 ft 300 kts 248°
2026-05-08 16:50 53.47079 9.35133 20159 ft 300 kts 248°
2026-05-08 16:50 53.46253 9.31912 20164 ft 300 kts 248°
2026-05-08 16:51 53.45423 9.28685 20162 ft 300 kts 248°
2026-05-08 16:51 53.44602 9.25505 20161 ft 300 kts 248°
2026-05-08 16:51 53.43770 9.22283 20159 ft 300 kts 248°
2026-05-08 16:51 53.42939 9.19059 20159 ft 300 kts 248°
2026-05-08 16:52 53.42105 9.15838 20159 ft 300 kts 248°
2026-05-08 16:52 53.41280 9.12658 20163 ft 300 kts 248°
2026-05-08 16:52 53.40446 9.09439 20165 ft 300 kts 248°
2026-05-08 16:52 53.39611 9.06222 20155 ft 300 kts 248°
2026-05-08 16:53 53.37948 8.99833 20150 ft 300 kts 248°
2026-05-08 16:53 53.37108 8.96613 20147 ft 301 kts 248°
2026-05-08 16:53 53.36268 8.93396 20142 ft 301 kts 248°
2026-05-08 16:54 53.35439 8.90230 20149 ft 301 kts 248°
2026-05-08 16:54 53.34611 8.87020 20150 ft 300 kts 250°
2026-05-08 16:54 53.33886 8.83735 20152 ft 299 kts 251°
2026-05-08 16:54 53.33170 8.80438 20152 ft 300 kts 251°
2026-05-08 16:55 53.32453 8.77198 20150 ft 300 kts 251°
2026-05-08 16:55 53.31725 8.73922 20148 ft 300 kts 250°
2026-05-08 16:55 53.31244 8.71754 20154 ft 300 kts 250°
2026-05-08 16:55 53.30279 8.67392 20156 ft 301 kts 250°
2026-05-08 16:56 53.29550 8.64105 20151 ft 301 kts 251°
2026-05-08 16:56 53.29064 8.61886 20154 ft 301 kts 251°
2026-05-08 16:56 53.28358 8.58632 20156 ft 301 kts 251°
2026-05-08 16:56 53.27636 8.55335 20149 ft 301 kts 251°
2026-05-08 16:57 53.26908 8.52029 20153 ft 301 kts 251°
2026-05-08 16:57 53.26214 8.48736 20155 ft 300 kts 253°
2026-05-08 16:57 53.25605 8.45442 20148 ft 300 kts 253°
2026-05-08 16:57 53.24980 8.42106 20152 ft 300 kts 253°
2026-05-08 16:58 53.24348 8.38774 20150 ft 300 kts 253°
2026-05-08 16:58 53.23720 8.35441 20147 ft 301 kts 253°
2026-05-08 16:58 53.23091 8.32111 20153 ft 300 kts 253°
2026-05-08 16:58 53.22467 8.28809 20148 ft 301 kts 253°
2026-05-08 16:59 53.21834 8.25477 20144 ft 301 kts 253°
2026-05-08 16:59 53.21198 8.22141 20151 ft 301 kts 253°
2026-05-08 16:59 53.20564 8.18806 20152 ft 301 kts 253°
2026-05-08 16:59 53.19928 8.15473 20152 ft 301 kts 253°
2026-05-08 17:00 53.19292 8.12146 20155 ft 301 kts 253°
2026-05-08 17:00 53.18666 8.08855 20149 ft 301 kts 253°
2026-05-08 17:00 53.18044 8.05517 20152 ft 301 kts 253°
2026-05-08 17:00 53.17419 8.02189 20155 ft 300 kts 253°
2026-05-08 17:01 53.16790 7.98865 20150 ft 300 kts 253°
2026-05-08 17:01 53.16167 7.95574 20153 ft 301 kts 253°
2026-05-08 17:01 53.15534 7.92237 20155 ft 301 kts 253°
2026-05-08 17:01 53.14903 7.88906 20150 ft 300 kts 253°
2026-05-08 17:02 53.14270 7.85586 20151 ft 300 kts 253°
2026-05-08 17:02 53.13642 7.82297 20153 ft 300 kts 253°
2026-05-08 17:02 53.13006 7.78963 20150 ft 300 kts 253°
2026-05-08 17:02 53.12372 7.75641 20147 ft 300 kts 253°
2026-05-08 17:03 53.11744 7.72365 20152 ft 300 kts 253°
2026-05-08 17:03 53.11220 7.68992 20078 ft 301 kts 262°
2026-05-08 17:03 53.11154 7.65465 19732 ft 303 kts 274°
2026-05-08 17:03 53.11533 7.62104 19349 ft 298 kts 285°
2026-05-08 17:04 53.12285 7.58881 18956 ft 298 kts 292°
2026-05-08 17:04 53.13087 7.55655 18558 ft 302 kts 291°
2026-05-08 17:04 53.13866 7.52440 18135 ft 302 kts 291°
2026-05-08 17:04 53.14653 7.49203 17725 ft 301 kts 291°
2026-05-08 17:05 53.15449 7.45948 17320 ft 304 kts 291°
2026-05-08 17:05 53.16247 7.42683 16921 ft 304 kts 291°
2026-05-08 17:05 53.17037 7.39437 16521 ft 299 kts 291°
2026-05-08 17:05 53.17806 7.36274 16135 ft 298 kts 291°
2026-05-08 17:06 53.18585 7.33057 15736 ft 298 kts 291°
2026-05-08 17:06 53.19361 7.29863 15350 ft 295 kts 291°
2026-05-08 17:06 53.20135 7.26666 14958 ft 296 kts 291°
2026-05-08 17:06 53.20887 7.23502 14576 ft 295 kts 289°
2026-05-08 17:07 53.21320 7.20174 14180 ft 293 kts 275°
2026-05-08 17:07 53.21366 7.16797 13784 ft 287 kts 269°
2026-05-08 17:07 53.21376 7.13472 13394 ft 287 kts 270°
2026-05-08 17:07 53.21401 7.10184 13017 ft 284 kts 270°
2026-05-08 17:08 53.21422 7.06906 12643 ft 281 kts 269°
2026-05-08 17:08 53.21435 7.03603 12273 ft 287 kts 270°
2026-05-08 17:08 53.21450 7.00265 11897 ft 285 kts 269°
2026-05-08 17:08 53.21466 6.96988 11525 ft 281 kts 269°
2026-05-08 17:09 53.21479 6.93726 11158 ft 285 kts 269°
2026-05-08 17:09 53.21492 6.90457 10784 ft 280 kts 269°
2026-05-08 17:09 53.21506 6.87203 10412 ft 280 kts 269°
2026-05-08 17:09 53.21513 6.83962 10048 ft 279 kts 268°
2026-05-08 17:10 53.21216 6.80787 9649 ft 275 kts 252°
2026-05-08 17:10 53.20469 6.77878 9284 ft 273 kts 238°
2026-05-08 17:10 53.19320 6.75348 8924 ft 273 kts 225°
2026-05-08 17:10 53.17920 6.73284 8573 ft 271 kts 219°
2026-05-08 17:11 53.16488 6.71231 8214 ft 271 kts 219°
2026-05-08 17:11 53.15081 6.69173 7859 ft 264 kts 220°
2026-05-08 17:11 53.13754 6.67243 7522 ft 242 kts 219°
2026-05-08 17:11 53.12537 6.65492 7213 ft 220 kts 219°
2026-05-08 17:12 53.11444 6.63919 6881 ft 203 kts 218°
2026-05-08 17:12 53.10407 6.62423 6563 ft 191 kts 219°
2026-05-08 17:12 53.09410 6.60996 6299 ft 187 kts 219°
2026-05-08 17:12 53.08410 6.59558 6054 ft 193 kts 219°
2026-05-08 17:13 53.07397 6.58096 5795 ft 195 kts 219°
2026-05-08 17:13 53.06366 6.56613 5528 ft 196 kts 219°
2026-05-08 17:13 53.05334 6.55123 5275 ft 197 kts 219°
2026-05-08 17:13 53.04295 6.53628 5009 ft 198 kts 218°
2026-05-08 17:14 53.03252 6.52130 4745 ft 199 kts 218°
2026-05-08 17:14 53.02219 6.50659 4481 ft 197 kts 218°
2026-05-08 17:14 53.01175 6.49157 4216 ft 195 kts 218°
2026-05-08 17:14 53.00168 6.47707 3964 ft 194 kts 219°
2026-05-08 17:15 52.99130 6.46225 3704 ft 195 kts 219°
2026-05-08 17:15 52.98119 6.44780 3454 ft 194 kts 220°
2026-05-08 17:15 52.97377 6.42930 3180 ft 195 kts 249°
2026-05-08 17:15 52.97211 6.40712 2992 ft 195 kts 277°
2026-05-08 17:16 52.97633 6.38620 2871 ft 191 kts 302°
2026-05-08 17:16 52.98545 6.37036 2709 ft 191 kts 328°
2026-05-08 17:16 52.99752 6.36255 2557 ft 187 kts 353°
2026-05-08 17:16 53.00984 6.36360 2401 ft 169 kts 18°
2026-05-08 17:17 53.02001 6.37160 2237 ft 156 kts 38°
2026-05-08 17:17 53.02721 6.38399 2076 ft 148 kts 56°
2026-05-08 17:17 53.03327 6.39711 2004 ft 132 kts 52°
2026-05-08 17:17 53.03883 6.40854 1984 ft 129 kts 54°
2026-05-08 17:18 53.04457 6.42068 1991 ft 135 kts 54°
2026-05-08 17:18 53.05049 6.43303 1940 ft 138 kts 55°
2026-05-08 17:18 53.05622 6.44559 1762 ft 136 kts 56°
2026-05-08 17:18 53.06191 6.45787 1602 ft 131 kts 54°
2026-05-08 17:19 53.06776 6.46917 1426 ft 126 kts 51°
2026-05-08 17:19 53.07292 6.47913 1269 ft 105 kts 52°
2026-05-08 17:19 53.07735 6.48804 1053 ft 95 kts 56°
2026-05-08 17:19 53.08107 6.49634 926 ft 87 kts 60°
2026-05-08 17:20 53.08462 6.50426 827 ft 83 kts 55°
2026-05-08 17:20 53.08796 6.51202 762 ft 82 kts 57°
2026-05-08 17:20 53.09163 6.51996 639 ft 90 kts 54°
2026-05-08 17:20 53.09560 6.52809 594 ft 92 kts 52°
2026-05-08 17:21 53.09951 6.53610 443 ft 88 kts 53°
2026-05-08 17:21 53.10326 6.54413 329 ft 88 kts 55°
2026-05-08 17:21 53.10706 6.55245 171 ft 88 kts 55°
2026-05-08 17:21 53.11076 6.56023 57 ft 86 kts 53°
2026-05-08 17:22 53.11416 6.56743 20 ft 66 kts 54°
2026-05-08 17:22 53.11652 6.57242 18 ft 45 kts 51°
2026-05-08 17:22 53.11829 6.57614 16 ft 38 kts 53°
2026-05-08 17:22 53.11973 6.57737 17 ft 20 kts
2026-05-08 17:23 53.12104 6.57772 17 ft 18 kts
2026-05-08 17:23 53.12217 6.57804 17 ft 16 kts
2026-05-08 17:23 53.12326 6.57834 14 ft 16 kts
2026-05-08 17:23 53.12420 6.57904 13 ft 15 kts 51°
2026-05-08 17:24 53.12477 6.58027 14 ft 12 kts 53°
2026-05-08 17:24 53.12525 6.58130 14 ft 11 kts 50°
2026-05-08 17:24 53.12567 6.58219 14 ft 9 kts 53°
2026-05-08 17:24 53.12601 6.58297 14 ft 8 kts 54°
2026-05-08 17:25 53.12638 6.58337 14 ft 6 kts 352°
2026-05-08 17:25 53.12671 6.58304 13 ft 6 kts 322°
2026-05-08 17:25 53.12701 6.58263 13 ft 6 kts 321°
2026-05-08 17:25 53.12731 6.58223 13 ft 6 kts 327°
2026-05-08 17:26 53.12767 6.58234 13 ft 6 kts 35°
2026-05-08 17:26 53.12799 6.58277 13 ft 6 kts 39°
2026-05-08 17:26 53.12834 6.58324 13 ft 7 kts 39°
2026-05-08 17:26 53.12872 6.58374 13 ft 7 kts 38°
2026-05-08 17:27 53.12912 6.58428 13 ft 8 kts 40°
2026-05-08 17:27 53.12939 6.58495 13 ft 8 kts 127°
2026-05-08 17:27 53.12919 6.58513 13 ft 2 kts 304°
2026-05-08 17:27 53.12920 6.58511 13 ft 0 kts 304°